Time,TemperatureF,DewpointF,PressureIn,WindDirection,WindDirectionDegrees,WindSpeedMPH,WindSpeedGustMPH,Humidity,HourlyPrecipIn,Conditions,Clouds,dailyrainin,SolarRadiationWatts/m^2,SoftwareType,DateUTC
2013-09-22 00:00:00,61.1,56.6,29.92,NW,322,3.0,3.0,85,0.00,,,0.00,0,Wunderground v.1.15,2013-09-22 07:00:00,
2013-09-22 00:05:00,61.0,56.5,29.92,NW,322,2.0,3.0,85,0.00,,,0.00,0,Wunderground v.1.15,2013-09-22 07:05:00,
2013-09-22 00:14:00,60.9,56.4,29.92,NW,321,2.0,3.0,85,0.00,,,0.00,0,Wunderground v.1.15,2013-09-22 07:14:00,
2013-09-22 00:19:00,60.9,56.4,29.92,NW,322,2.0,2.0,85,0.00,,,0.00,0,Wunderground v.1.15,2013-09-22 07:19:00,
2013-09-22 00:24:00,60.8,56.3,29.92,NW,322,2.0,3.0,85,0.00,,,0.00,0,Wunderground v.1.15,2013-09-22 07:24:00,
2013-09-22 00:30:00,60.8,56.3,29.92,NW,322,3.0,7.0,85,0.00,,,0.00,0,Wunderground v.1.15,2013-09-22 07:30:00,
2013-09-22 00:40:00,60.8,56.3,29.92,NW,307,6.0,7.0,85,0.00,,,0.00,0,Wunderground v.1.15,2013-09-22 07:40:00,
2013-09-22 00:49:00,60.7,56.2,29.92,NW,315,7.0,7.0,85,0.00,,,0.00,0,Wunderground v.1.15,2013-09-22 07:49:00,
2013-09-22 00:55:00,60.6,56.1,29.92,NW,315,5.0,7.0,85,0.00,,,0.00,0,Wunderground v.1.15,2013-09-22 07:55:00,
2013-09-22 01:04:00,60.4,56.2,29.92,NW,318,4.0,4.0,86,0.00,,,0.00,0,Wunderground v.1.15,2013-09-22 08:04:00,
2013-09-22 01:09:00,60.3,56.1,29.92,NW,319,4.0,4.0,86,0.00,,,0.00,0,Wunderground v.1.15,2013-09-22 08:09:00,
2013-09-22 01:15:00,60.1,55.9,29.92,NW,320,4.0,4.0,86,0.00,,,0.00,0,Wunderground v.1.15,2013-09-22 08:15:00,
2013-09-22 01:24:00,60.0,56.1,29.93,NNW,334,5.0,5.0,87,0.00,,,0.00,0,Wunderground v.1.15,2013-09-22 08:24:00,
2013-09-22 01:29:00,60.0,56.1,29.93,NNW,329,6.0,10.0,87,0.00,,,0.00,0,Wunderground v.1.15,2013-09-22 08:29:00,
2013-09-22 01:35:00,60.0,56.1,29.93,NNW,329,7.0,10.0,87,0.00,,,0.00,0,Wunderground v.1.15,2013-09-22 08:35:00,
2013-09-22 01:44:00,60.1,56.2,29.93,NNW,328,7.0,9.0,87,0.00,,,0.00,0,Wunderground v.1.15,2013-09-22 08:44:00,
2013-09-22 01:49:00,60.1,56.2,29.93,NNW,327,7.0,7.0,87,0.00,,,0.00,0,Wunderground v.1.15,2013-09-22 08:49:00,
2013-09-22 01:55:00,60.0,56.1,29.94,NW,324,7.0,8.0,87,0.00,,,0.00,0,Wunderground v.1.15,2013-09-22 08:55:00,
2013-09-22 02:04:00,60.0,56.1,29.94,NNW,329,7.0,7.0,87,0.00,,,0.00,0,Wunderground v.1.15,2013-09-22 09:04:00,
2013-09-22 02:10:00,59.9,56.0,29.94,NW,320,7.0,7.0,87,0.00,,,0.00,0,Wunderground v.1.15,2013-09-22 09:10:00,
2013-09-22 02:19:00,59.8,55.9,29.94,NW,326,5.0,8.0,87,0.00,,,0.00,0,Wunderground v.1.15,2013-09-22 09:19:00,
2013-09-22 02:24:00,59.7,55.8,29.94,NNW,334,4.0,8.0,87,0.00,,,0.00,0,Wunderground v.1.15,2013-09-22 09:24:00,
2013-09-22 02:30:00,59.5,55.6,29.94,NNW,333,3.0,3.0,87,0.00,,,0.00,0,Wunderground v.1.15,2013-09-22 09:30:00,
2013-09-22 02:39:00,59.1,55.2,29.94,NNW,333,1.0,1.0,87,0.00,,,0.00,0,Wunderground v.1.15,2013-09-22 09:39:00,
2013-09-22 02:45:00,58.9,55.0,29.94,NNW,333,1.0,1.0,87,0.00,,,0.00,0,Wunderground v.1.15,2013-09-22 09:45:00,
2013-09-22 02:54:00,58.6,55.1,29.94,NNW,334,2.0,2.0,88,0.00,,,0.00,0,Wunderground v.1.15,2013-09-22 09:54:00,
2013-09-22 02:59:00,58.5,55.3,29.94,NNW,332,1.0,1.0,89,0.00,,,0.00,0,Wunderground v.1.15,2013-09-22 09:59:00,
2013-09-22 03:05:00,58.5,55.3,29.94,NNW,333,0.0,1.0,89,0.00,,,0.00,0,Wunderground v.1.15,2013-09-22 10:05:00,
2013-09-22 03:14:00,58.3,55.1,29.94,NNW,332,0.0,0.0,89,0.00,,,0.00,0,Wunderground v.1.15,2013-09-22 10:14:00,
2013-09-22 03:19:00,58.2,55.0,29.94,NNW,333,0.0,0.0,89,0.00,,,0.00,0,Wunderground v.1.15,2013-09-22 10:19:00,
2013-09-22 03:25:00,58.1,54.9,29.94,NNW,334,0.0,0.0,89,0.00,,,0.00,0,Wunderground v.1.15,2013-09-22 10:25:00,
2013-09-22 03:34:00,57.7,54.5,29.94,NNW,334,0.0,0.0,89,0.00,,,0.00,0,Wunderground v.1.15,2013-09-22 10:34:00,
2013-09-22 03:39:00,57.5,54.3,29.94,NNW,333,0.0,0.0,89,0.00,,,0.00,0,Wunderground v.1.15,2013-09-22 10:39:00,
2013-09-22 03:45:00,57.4,54.5,29.94,NNW,332,0.0,0.0,90,0.00,,,0.00,0,Wunderground v.1.15,2013-09-22 10:45:00,
2013-09-22 04:00:00,57.5,54.9,29.94,NNW,334,0.0,0.0,91,0.00,,,0.00,0,Wunderground v.1.15,2013-09-22 11:00:00,
2013-09-22 04:09:00,57.3,54.7,29.94,NNW,333,0.0,0.0,91,0.00,,,0.00,0,Wunderground v.1.15,2013-09-22 11:09:00,
2013-09-22 04:15:00,57.3,54.7,29.94,NNW,332,0.0,0.0,91,0.00,,,0.00,0,Wunderground v.1.15,2013-09-22 11:15:00,
2013-09-22 04:24:00,57.2,54.6,29.94,NNW,334,0.0,1.0,91,0.00,,,0.00,0,Wunderground v.1.15,2013-09-22 11:24:00,
2013-09-22 04:29:00,57.2,54.6,29.94,NNW,332,1.0,1.0,91,0.00,,,0.00,0,Wunderground v.1.15,2013-09-22 11:29:00,
2013-09-22 04:35:00,57.3,55.0,29.94,NNW,333,1.0,1.0,92,0.00,,,0.00,0,Wunderground v.1.15,2013-09-22 11:35:00,
2013-09-22 04:44:00,57.6,55.3,29.94,NNW,333,0.0,0.0,92,0.00,,,0.00,0,Wunderground v.1.15,2013-09-22 11:44:00,
2013-09-22 04:50:00,57.6,55.3,29.94,NNW,334,0.0,0.0,92,0.00,,,0.00,0,Wunderground v.1.15,2013-09-22 11:50:00,
2013-09-22 04:59:00,57.7,55.4,29.95,NNW,333,0.0,0.0,92,0.00,,,0.00,0,Wunderground v.1.15,2013-09-22 11:59:00,
2013-09-22 05:04:00,57.6,55.3,29.95,NNW,333,0.0,0.0,92,0.00,,,0.00,0,Wunderground v.1.15,2013-09-22 12:04:00,
2013-09-22 05:10:00,57.3,54.7,29.95,NNW,334,0.0,0.0,91,0.00,,,0.00,0,Wunderground v.1.15,2013-09-22 12:10:00,
2013-09-22 05:19:00,56.8,54.2,29.95,NNW,334,0.0,0.0,91,0.00,,,0.00,0,Wunderground v.1.15,2013-09-22 12:19:00,
2013-09-22 05:24:00,56.6,54.0,29.95,NNW,334,0.0,0.0,91,0.00,,,0.00,0,Wunderground v.1.15,2013-09-22 12:24:00,
2013-09-22 05:30:00,56.4,53.8,29.95,NNW,332,0.0,0.0,91,0.00,,,0.00,0,Wunderground v.1.15,2013-09-22 12:30:00,
2013-09-22 05:39:00,56.2,53.9,29.95,NNW,334,0.0,0.0,92,0.00,,,0.00,0,Wunderground v.1.15,2013-09-22 12:39:00,
2013-09-22 05:44:00,56.3,54.0,29.95,NNW,333,0.0,1.0,92,0.00,,,0.00,0,Wunderground v.1.15,2013-09-22 12:44:00,
2013-09-22 05:50:00,56.2,53.9,29.95,NNW,334,1.0,1.0,92,0.00,,,0.00,0,Wunderground v.1.15,2013-09-22 12:50:00,
2013-09-22 05:59:00,56.0,53.7,29.96,NNW,332,0.0,0.0,92,0.00,,,0.00,0,Wunderground v.1.15,2013-09-22 12:59:00,
2013-09-22 06:05:00,55.8,53.5,29.96,NNW,332,0.0,0.0,92,0.00,,,0.00,0,Wunderground v.1.15,2013-09-22 13:05:00,
2013-09-22 06:14:00,55.5,53.2,29.96,NNW,333,0.0,0.0,92,0.00,,,0.00,0,Wunderground v.1.15,2013-09-22 13:14:00,
2013-09-22 06:24:00,55.2,52.9,29.96,NNW,334,0.0,0.0,92,0.00,,,0.00,0,Wunderground v.1.15,2013-09-22 13:24:00,
2013-09-22 06:29:00,55.1,52.8,29.96,NNW,334,0.0,0.0,92,0.00,,,0.00,0,Wunderground v.1.15,2013-09-22 13:29:00,
2013-09-22 06:39:00,54.9,52.6,29.96,NNW,334,0.0,0.0,92,0.00,,,0.00,0,Wunderground v.1.15,2013-09-22 13:39:00,
2013-09-22 06:44:00,54.8,52.5,29.97,NNW,334,0.0,0.0,92,0.00,,,0.00,0,Wunderground v.1.15,2013-09-22 13:44:00,
2013-09-22 06:50:00,54.6,52.3,29.97,NNW,334,0.0,0.0,92,0.00,,,0.00,0,Wunderground v.1.15,2013-09-22 13:50:00,
2013-09-22 06:59:00,54.6,52.6,29.97,NNW,335,0.0,0.0,93,0.00,,,0.00,5,Wunderground v.1.15,2013-09-22 13:59:00,
2013-09-22 07:04:00,54.5,52.5,29.97,NNW,338,0.0,0.0,93,0.00,,,0.00,7,Wunderground v.1.15,2013-09-22 14:04:00,
2013-09-22 07:10:00,54.6,52.6,29.97,NNW,333,0.0,0.0,93,0.00,,,0.00,9,Wunderground v.1.15,2013-09-22 14:10:00,
2013-09-22 07:19:00,55.1,53.4,29.98,NNW,334,0.0,0.0,94,0.00,,,0.00,23,Wunderground v.1.15,2013-09-22 14:19:00,
2013-09-22 07:25:00,55.9,54.5,29.98,NNW,337,0.0,0.0,95,0.00,,,0.00,33,Wunderground v.1.15,2013-09-22 14:25:00,
2013-09-22 07:34:00,57.6,56.2,29.98,NNW,336,0.0,0.0,95,0.00,,,0.00,56,Wunderground v.1.15,2013-09-22 14:34:00,
2013-09-22 07:39:00,58.3,56.6,29.98,NNW,333,0.0,0.0,94,0.00,,,0.00,70,Wunderground v.1.15,2013-09-22 14:39:00,
2013-09-22 07:45:00,59.1,57.4,29.98,NNW,330,0.0,0.0,94,0.00,,,0.00,86,Wunderground v.1.15,2013-09-22 14:45:00,
2013-09-22 07:54:00,60.2,57.9,29.98,NNW,334,0.0,0.0,92,0.00,,,0.00,120,Wunderground v.1.15,2013-09-22 14:54:00,
2013-09-22 08:00:00,61.0,58.7,29.98,NNW,339,0.0,0.0,92,0.00,,,0.00,137,Wunderground v.1.15,2013-09-22 15:00:00,
2013-09-22 08:09:00,62.6,59.6,29.99,NNW,332,0.0,1.0,90,0.00,,,0.00,169,Wunderground v.1.15,2013-09-22 15:09:00,
2013-09-22 08:14:00,63.6,60.0,29.99,NNW,332,0.0,2.0,88,0.00,,,0.00,183,Wunderground v.1.15,2013-09-22 15:14:00,
2013-09-22 08:20:00,64.8,60.5,29.99,NNW,336,1.0,1.0,86,0.00,,,0.00,199,Wunderground v.1.15,2013-09-22 15:20:00,
2013-09-22 08:29:00,66.2,60.2,29.99,NNW,333,3.0,3.0,81,0.00,,,0.00,230,Wunderground v.1.15,2013-09-22 15:29:00,
2013-09-22 08:35:00,66.4,59.7,29.99,NNW,334,4.0,4.0,79,0.00,,,0.00,250,Wunderground v.1.15,2013-09-22 15:35:00,
2013-09-22 08:44:00,66.6,58.8,29.99,NNW,330,3.0,7.0,76,0.00,,,0.00,283,Wunderground v.1.15,2013-09-22 15:44:00,
2013-09-22 08:49:00,66.8,58.6,29.99,NNW,335,3.0,3.0,75,0.00,,,0.00,301,Wunderground v.1.15,2013-09-22 15:49:00,
2013-09-22 08:55:00,67.1,58.5,29.99,NNW,336,3.0,3.0,74,0.00,,,0.00,316,Wunderground v.1.15,2013-09-22 15:55:00,
2013-09-22 09:04:00,67.5,57.8,30.00,NNW,336,4.0,4.0,71,0.00,,,0.00,348,Wunderground v.1.15,2013-09-22 16:04:00,
2013-09-22 09:09:00,67.3,57.6,30.00,North,2,4.0,4.0,71,0.00,,,0.00,366,Wunderground v.1.15,2013-09-22 16:09:00,
2013-09-22 09:15:00,67.1,57.0,30.00,NNW,347,5.0,6.0,70,0.00,,,0.00,381,Wunderground v.1.15,2013-09-22 16:15:00,
2013-09-22 09:24:00,66.4,56.7,30.00,North,359,5.0,9.0,71,0.00,,,0.00,411,Wunderground v.1.15,2013-09-22 16:24:00,
2013-09-22 09:29:00,66.3,56.6,30.00,North,353,6.0,10.0,71,0.00,,,0.00,425,Wunderground v.1.15,2013-09-22 16:29:00,
2013-09-22 09:35:00,66.3,56.6,30.00,NNE,14,7.0,10.0,71,0.00,,,0.00,441,Wunderground v.1.15,2013-09-22 16:35:00,
2013-09-22 09:44:00,66.9,56.8,30.01,North,3,6.0,9.0,70,0.00,,,0.00,469,Wunderground v.1.15,2013-09-22 16:44:00,
2013-09-22 09:50:00,67.1,57.0,30.01,North,6,6.0,7.0,70,0.00,,,0.00,483,Wunderground v.1.15,2013-09-22 16:50:00,
2013-09-22 09:59:00,67.6,57.1,30.02,North,7,5.0,5.0,69,0.00,,,0.00,510,Wunderground v.1.15,2013-09-22 16:59:00,
2013-09-22 10:04:00,68.2,57.2,30.02,NNE,17,5.0,6.0,68,0.00,,,0.00,524,Wunderground v.1.15,2013-09-22 17:04:00,
2013-09-22 10:10:00,68.6,57.2,30.02,NNE,23,5.0,6.0,67,0.00,,,0.00,538,Wunderground v.1.15,2013-09-22 17:10:00,
2013-09-22 10:19:00,68.6,56.8,30.02,NNE,19,6.0,7.0,66,0.00,,,0.00,564,Wunderground v.1.15,2013-09-22 17:19:00,
2013-09-22 10:25:00,68.7,56.5,30.02,NNE,33,6.0,8.0,65,0.00,,,0.00,577,Wunderground v.1.15,2013-09-22 17:25:00,
2013-09-22 10:34:00,69.0,55.9,30.01,NNE,14,6.0,6.0,63,0.00,,,0.00,599,Wunderground v.1.15,2013-09-22 17:34:00,
2013-09-22 10:40:00,69.2,56.1,30.01,North,5,6.0,7.0,63,0.00,,,0.00,612,Wunderground v.1.15,2013-09-22 17:40:00,
2013-09-22 10:45:00,69.3,56.2,30.01,NNE,32,6.0,7.0,63,0.00,,,0.00,624,Wunderground v.1.15,2013-09-22 17:45:00,
2013-09-22 10:54:00,70.2,56.6,30.01,North,359,5.0,5.0,62,0.00,,,0.00,643,Wunderground v.1.15,2013-09-22 17:54:00,
2013-09-22 11:00:00,70.4,56.8,30.01,North,359,5.0,5.0,62,0.00,,,0.00,656,Wunderground v.1.15,2013-09-22 18:00:00,
2013-09-22 11:09:00,71.5,56.9,30.01,North,10,3.0,5.0,60,0.00,,,0.00,673,Wunderground v.1.15,2013-09-22 18:09:00,
2013-09-22 11:15:00,72.0,56.9,30.01,NE,45,2.0,5.0,59,0.00,,,0.00,682,Wunderground v.1.15,2013-09-22 18:15:00,
2013-09-22 11:24:00,71.5,57.3,30.01,NE,45,1.0,1.0,61,0.00,,,0.00,700,Wunderground v.1.15,2013-09-22 18:24:00,
2013-09-22 11:29:00,69.6,56.4,30.01,WSW,244,2.0,6.0,63,0.00,,,0.00,707,Wunderground v.1.15,2013-09-22 18:29:00,
2013-09-22 11:34:00,66.3,57.4,30.01,SW,224,4.0,6.0,73,0.00,,,0.00,715,Wunderground v.1.15,2013-09-22 18:34:00,
2013-09-22 11:44:00,63.0,56.0,30.01,WSW,250,6.0,8.0,78,0.00,,,0.00,729,Wunderground v.1.15,2013-09-22 18:44:00,
2013-09-22 11:49:00,62.5,55.9,30.01,WSW,253,6.0,6.0,79,0.00,,,0.00,738,Wunderground v.1.15,2013-09-22 18:49:00,
2013-09-22 11:55:00,62.7,56.1,30.01,WSW,252,6.0,6.0,79,0.00,,,0.00,744,Wunderground v.1.15,2013-09-22 18:55:00,
2013-09-22 12:04:00,63.4,57.1,30.01,WSW,246,5.0,7.0,80,0.00,,,0.00,754,Wunderground v.1.15,2013-09-22 19:04:00,
2013-09-22 12:09:00,63.2,56.2,30.01,WSW,251,6.0,6.0,78,0.00,,,0.00,758,Wunderground v.1.15,2013-09-22 19:09:00,
2013-09-22 12:19:00,63.5,56.9,30.01,WSW,252,6.0,7.0,79,0.00,,,0.00,766,Wunderground v.1.15,2013-09-22 19:19:00,
2013-09-22 12:24:00,63.4,56.4,30.01,WSW,247,7.0,9.0,78,0.00,,,0.00,772,Wunderground v.1.15,2013-09-22 19:24:00,
2013-09-22 12:30:00,63.3,56.7,30.00,WSW,243,8.0,10.0,79,0.00,,,0.00,777,Wunderground v.1.15,2013-09-22 19:30:00,
2013-09-22 12:39:00,62.7,55.7,30.00,West,278,9.0,9.0,78,0.00,,,0.00,780,Wunderground v.1.15,2013-09-22 19:39:00,
2013-09-22 12:44:00,62.3,56.0,30.00,WSW,257,9.0,12.0,80,0.00,,,0.00,784,Wunderground v.1.15,2013-09-22 19:44:00,
2013-09-22 12:50:00,62.2,56.0,30.00,SSW,213,10.0,10.0,80,0.00,,,0.00,786,Wunderground v.1.15,2013-09-22 19:50:00,
2013-09-22 12:59:00,62.6,56.3,30.01,WSW,255,9.0,9.0,80,0.00,,,0.00,786,Wunderground v.1.15,2013-09-22 19:59:00,
2013-09-22 13:05:00,62.8,56.5,30.01,WSW,241,10.0,10.0,80,0.00,,,0.00,786,Wunderground v.1.15,2013-09-22 20:05:00,
2013-09-22 13:14:00,63.0,56.4,30.01,WSW,248,10.0,11.0,79,0.00,,,0.00,788,Wunderground v.1.15,2013-09-22 20:14:00,
2013-09-22 13:19:00,63.1,56.8,30.00,WSW,239,10.0,10.0,80,0.00,,,0.00,786,Wunderground v.1.15,2013-09-22 20:19:00,
2013-09-22 13:25:00,63.1,57.2,30.00,West,259,9.0,10.0,81,0.00,,,0.00,786,Wunderground v.1.15,2013-09-22 20:25:00,
2013-09-22 13:34:00,62.4,57.5,30.00,WSW,258,9.0,11.0,84,0.00,,,0.00,780,Wunderground v.1.15,2013-09-22 20:34:00,
2013-09-22 13:40:00,62.7,57.8,30.00,SW,224,7.0,7.0,84,0.00,,,0.00,779,Wunderground v.1.15,2013-09-22 20:40:00,
2013-09-22 13:49:00,62.4,57.8,30.00,WSW,255,9.0,9.0,85,0.00,,,0.00,851,Wunderground v.1.15,2013-09-22 20:49:00,
2013-09-22 13:54:00,62.4,57.5,30.00,West,262,8.0,9.0,84,0.00,,,0.00,374,Wunderground v.1.15,2013-09-22 20:54:00,
2013-09-22 14:00:00,62.3,57.1,30.00,West,271,8.0,11.0,83,0.00,,,0.00,802,Wunderground v.1.15,2013-09-22 21:00:00,
2013-09-22 14:09:00,62.0,57.1,30.00,WSW,253,10.0,10.0,84,0.00,,,0.00,754,Wunderground v.1.15,2013-09-22 21:09:00,
2013-09-22 14:19:00,62.5,57.3,29.99,WSW,255,10.0,10.0,83,0.00,,,0.00,744,Wunderground v.1.15,2013-09-22 21:19:00,
2013-09-22 14:24:00,62.6,57.4,29.99,WSW,254,8.0,10.0,83,0.00,,,0.00,744,Wunderground v.1.15,2013-09-22 21:24:00,
2013-09-22 14:30:00,62.3,57.1,29.99,West,263,8.0,8.0,83,0.00,,,0.00,758,Wunderground v.1.15,2013-09-22 21:30:00,
2013-09-22 14:39:00,61.7,57.1,29.99,WSW,244,10.0,10.0,85,0.00,,,0.00,715,Wunderground v.1.15,2013-09-22 21:39:00,
2013-09-22 14:44:00,62.2,57.6,29.99,WSW,253,9.0,10.0,85,0.00,,,0.00,708,Wunderground v.1.15,2013-09-22 21:44:00,
2013-09-22 14:54:00,62.5,57.9,29.99,WSW,254,8.0,9.0,85,0.00,,,0.00,693,Wunderground v.1.15,2013-09-22 21:54:00,
2013-09-22 14:59:00,63.1,58.5,29.99,West,259,7.0,7.0,85,0.00,,,0.00,684,Wunderground v.1.15,2013-09-22 21:59:00,
2013-09-22 15:09:00,63.3,58.7,29.99,SW,226,8.0,8.0,85,0.00,,,0.00,664,Wunderground v.1.15,2013-09-22 22:09:00,
2013-09-22 15:14:00,63.1,58.2,29.99,SW,230,7.0,8.0,84,0.00,,,0.00,656,Wunderground v.1.15,2013-09-22 22:14:00,
2013-09-22 15:24:00,63.9,59.0,29.99,WSW,250,6.0,7.0,84,0.00,,,0.00,635,Wunderground v.1.15,2013-09-22 22:24:00,
2013-09-22 15:29:00,64.1,59.2,29.98,SW,227,7.0,7.0,84,0.00,,,0.00,624,Wunderground v.1.15,2013-09-22 22:29:00,
2013-09-22 15:39:00,64.0,59.1,29.98,WSW,237,6.0,6.0,84,0.00,,,0.00,603,Wunderground v.1.15,2013-09-22 22:39:00,
2013-09-22 15:45:00,64.1,59.2,29.98,SW,230,7.0,7.0,84,0.00,,,0.00,589,Wunderground v.1.15,2013-09-22 22:45:00,
2013-09-22 15:54:00,64.3,59.4,29.98,SW,230,6.0,7.0,84,0.00,,,0.00,564,Wunderground v.1.15,2013-09-22 22:54:00,
2013-09-22 15:59:00,64.7,59.8,29.98,SSW,213,6.0,6.0,84,0.00,,,0.00,552,Wunderground v.1.15,2013-09-22 22:59:00,
2013-09-22 16:05:00,64.7,59.8,29.98,SW,222,5.0,6.0,84,0.00,,,0.00,538,Wunderground v.1.15,2013-09-22 23:05:00,
2013-09-22 16:14:00,65.2,60.2,29.98,SSW,208,5.0,5.0,84,0.00,,,0.00,513,Wunderground v.1.15,2013-09-22 23:14:00,
2013-09-22 16:19:00,65.0,59.7,29.98,SSW,213,4.0,4.0,83,0.00,,,0.00,501,Wunderground v.1.15,2013-09-22 23:19:00,
2013-09-22 16:24:00,65.0,59.7,29.98,SSW,208,4.0,6.0,83,0.00,,,0.00,487,Wunderground v.1.15,2013-09-22 23:24:00,
2013-09-22 16:29:00,64.8,59.2,29.98,South,182,6.0,6.0,82,0.00,,,0.00,471,Wunderground v.1.15,2013-09-22 23:29:00,
2013-09-22 16:39:00,65.1,58.8,29.98,South,175,6.0,7.0,80,0.00,,,0.00,445,Wunderground v.1.15,2013-09-22 23:39:00,
2013-09-22 16:44:00,65.1,58.8,29.98,South,174,7.0,7.0,80,0.00,,,0.00,429,Wunderground v.1.15,2013-09-22 23:44:00,
2013-09-22 16:54:00,66.1,58.7,29.98,NNW,335,5.0,11.0,77,0.00,,,0.00,397,Wunderground v.1.15,2013-09-22 23:54:00,
2013-09-22 16:59:00,68.1,57.9,29.97,NW,319,8.0,9.0,70,0.00,,,0.00,381,Wunderground v.1.15,2013-09-22 23:59:00,
2013-09-22 17:05:00,69.5,56.8,29.97,NNW,328,11.0,15.0,64,0.00,,,0.00,366,Wunderground v.1.15,2013-09-23 00:05:00,
2013-09-22 17:14:00,70.6,56.0,29.97,NW,326,10.0,12.0,60,0.00,,,0.00,336,Wunderground v.1.15,2013-09-23 00:14:00,
2013-09-22 17:20:00,70.8,56.2,29.97,NW,313,9.0,9.0,60,0.00,,,0.00,320,Wunderground v.1.15,2013-09-23 00:20:00,
2013-09-22 17:29:00,70.2,55.7,29.97,NNW,334,11.0,14.0,60,0.00,,,0.00,285,Wunderground v.1.15,2013-09-23 00:29:00,
2013-09-22 17:34:00,70.0,55.5,29.97,NW,315,11.0,14.0,60,0.00,,,0.00,267,Wunderground v.1.15,2013-09-23 00:34:00,
2013-09-22 17:44:00,69.6,56.4,29.97,NNW,327,11.0,14.0,63,0.00,,,0.00,230,Wunderground v.1.15,2013-09-23 00:44:00,
2013-09-22 17:49:00,69.4,56.3,29.97,NW,322,12.0,13.0,63,0.00,,,0.00,213,Wunderground v.1.15,2013-09-23 00:49:00,
2013-09-22 17:55:00,69.1,56.0,29.98,NNW,334,13.0,13.0,63,0.00,,,0.00,193,Wunderground v.1.15,2013-09-23 00:55:00,
2013-09-22 18:04:00,68.6,56.4,29.98,NW,309,15.0,16.0,65,0.00,,,0.00,151,Wunderground v.1.15,2013-09-23 01:04:00,
2013-09-22 18:09:00,68.3,56.5,29.98,NNW,332,14.0,16.0,66,0.00,,,0.00,130,Wunderground v.1.15,2013-09-23 01:09:00,
2013-09-22 18:19:00,68.1,56.3,29.98,NNW,335,13.0,13.0,66,0.00,,,0.00,95,Wunderground v.1.15,2013-09-23 01:19:00,
2013-09-22 18:24:00,68.0,56.6,29.98,NW,324,12.0,13.0,67,0.00,,,0.00,77,Wunderground v.1.15,2013-09-23 01:24:00,
2013-09-22 18:30:00,67.8,56.4,29.98,NW,320,12.0,12.0,67,0.00,,,0.00,62,Wunderground v.1.15,2013-09-23 01:30:00,
2013-09-22 18:39:00,67.4,56.5,29.98,NW,322,12.0,14.0,68,0.00,,,0.00,35,Wunderground v.1.15,2013-09-23 01:39:00,
2013-09-22 18:45:00,67.1,56.6,29.98,NNW,328,13.0,15.0,69,0.00,,,0.00,25,Wunderground v.1.15,2013-09-23 01:45:00,
2013-09-22 18:54:00,66.3,56.2,29.98,NW,324,15.0,15.0,70,0.00,,,0.00,11,Wunderground v.1.15,2013-09-23 01:54:00,
2013-09-22 19:04:00,65.7,56.4,29.98,NW,324,15.0,15.0,72,0.00,,,0.00,5,Wunderground v.1.15,2013-09-23 02:04:00,
2013-09-22 19:15:00,65.4,56.1,29.99,NW,324,12.0,14.0,72,0.00,,,0.00,0,Wunderground v.1.15,2013-09-23 02:15:00,
2013-09-22 19:24:00,65.2,55.9,29.99,NNW,327,11.0,11.0,72,0.00,,,0.00,0,Wunderground v.1.15,2013-09-23 02:24:00,
2013-09-22 19:29:00,65.1,55.8,29.99,NW,321,11.0,14.0,72,0.00,,,0.00,0,Wunderground v.1.15,2013-09-23 02:29:00,
2013-09-22 19:39:00,65.0,56.1,29.99,North,357,10.0,11.0,73,0.00,,,0.00,0,Wunderground v.1.15,2013-09-23 02:39:00,
2013-09-22 19:44:00,64.9,56.0,29.99,NW,322,10.0,11.0,73,0.00,,,0.00,0,Wunderground v.1.15,2013-09-23 02:44:00,
2013-09-22 19:54:00,64.8,55.9,30.00,NNW,346,9.0,11.0,73,0.00,,,0.00,0,Wunderground v.1.15,2013-09-23 02:54:00,
2013-09-22 19:59:00,64.7,56.2,30.00,NNW,328,8.0,9.0,74,0.00,,,0.00,0,Wunderground v.1.15,2013-09-23 02:59:00,
2013-09-22 20:04:00,64.6,56.1,30.00,NW,324,8.0,10.0,74,0.00,,,0.00,0,Wunderground v.1.15,2013-09-23 03:04:00,
2013-09-22 20:14:00,64.3,56.2,30.00,NNW,329,10.0,15.0,75,0.00,,,0.00,0,Wunderground v.1.15,2013-09-23 03:14:00,
2013-09-22 20:24:00,64.2,56.1,30.00,NNW,332,9.0,13.0,75,0.00,,,0.00,0,Wunderground v.1.15,2013-09-23 03:24:00,
2013-09-22 20:30:00,64.1,56.0,30.00,NW,322,11.0,12.0,75,0.00,,,0.00,0,Wunderground v.1.15,2013-09-23 03:30:00,
2013-09-22 20:39:00,64.0,55.9,30.01,NW,326,12.0,12.0,75,0.00,,,0.00,0,Wunderground v.1.15,2013-09-23 03:39:00,
2013-09-22 20:49:00,64.0,55.9,30.01,NNW,334,12.0,12.0,75,0.00,,,0.00,0,Wunderground v.1.15,2013-09-23 03:49:00,
2013-09-22 20:55:00,64.0,55.9,30.01,NW,326,12.0,15.0,75,0.00,,,0.00,0,Wunderground v.1.15,2013-09-23 03:55:00,
2013-09-22 21:04:00,64.0,55.9,30.01,NW,318,13.0,13.0,75,0.00,,,0.00,0,Wunderground v.1.15,2013-09-23 04:04:00,
2013-09-22 21:09:00,64.0,55.9,30.01,NW,324,12.0,12.0,75,0.00,,,0.00,0,Wunderground v.1.15,2013-09-23 04:09:00,
2013-09-22 21:14:00,64.0,55.9,30.01,NNW,333,12.0,12.0,75,0.00,,,0.00,0,Wunderground v.1.15,2013-09-23 04:14:00,
2013-09-22 21:19:00,64.0,55.9,30.02,NW,315,11.0,12.0,75,0.00,,,0.00,0,Wunderground v.1.15,2013-09-23 04:19:00,
2013-09-22 21:24:00,64.0,55.9,30.02,NW,323,10.0,12.0,75,0.00,,,0.00,0,Wunderground v.1.15,2013-09-23 04:24:00,
2013-09-22 21:29:00,63.9,56.2,30.02,NNW,336,10.0,12.0,76,0.00,,,0.00,0,Wunderground v.1.15,2013-09-23 04:29:00,
2013-09-22 21:35:00,63.8,56.1,30.02,NNW,335,11.0,12.0,76,0.00,,,0.00,0,Wunderground v.1.15,2013-09-23 04:35:00,
2013-09-22 21:44:00,63.8,56.1,30.01,NW,322,10.0,13.0,76,0.00,,,0.00,0,Wunderground v.1.15,2013-09-23 04:44:00,
2013-09-22 21:49:00,63.7,56.4,30.01,NW,321,11.0,11.0,77,0.00,,,0.00,0,Wunderground v.1.15,2013-09-23 04:49:00,
2013-09-22 21:59:00,63.7,56.4,30.01,NNW,344,13.0,13.0,77,0.00,,,0.00,0,Wunderground v.1.15,2013-09-23 04:59:00,
2013-09-22 22:04:00,63.6,56.3,30.01,NNW,338,12.0,13.0,77,0.00,,,0.00,0,Wunderground v.1.15,2013-09-23 05:04:00,
2013-09-22 22:14:00,63.5,56.5,30.02,NW,325,11.0,11.0,78,0.00,,,0.00,0,Wunderground v.1.15,2013-09-23 05:14:00,
2013-09-22 22:19:00,63.5,56.5,30.02,NNW,342,10.0,12.0,78,0.00,,,0.00,0,Wunderground v.1.15,2013-09-23 05:19:00,
2013-09-22 22:29:00,63.4,56.4,30.02,NNW,335,10.0,10.0,78,0.00,,,0.00,0,Wunderground v.1.15,2013-09-23 05:29:00,
2013-09-22 22:34:00,63.4,56.4,30.02,NNW,333,9.0,10.0,78,0.00,,,0.00,0,Wunderground v.1.15,2013-09-23 05:34:00,
2013-09-22 22:40:00,63.3,56.3,30.03,NNW,347,8.0,8.0,78,0.00,,,0.00,0,Wunderground v.1.15,2013-09-23 05:40:00,
2013-09-22 22:49:00,63.1,56.1,30.03,North,354,4.0,4.0,78,0.00,,,0.00,0,Wunderground v.1.15,2013-09-23 05:49:00,
2013-09-22 22:55:00,63.1,56.5,30.03,NNW,336,4.0,4.0,79,0.00,,,0.00,0,Wunderground v.1.15,2013-09-23 05:55:00,
2013-09-22 23:04:00,63.0,56.4,30.03,NNW,328,6.0,7.0,79,0.00,,,0.00,0,Wunderground v.1.15,2013-09-23 06:04:00,
2013-09-22 23:09:00,63.0,56.4,30.03,NNW,343,7.0,7.0,79,0.00,,,0.00,0,Wunderground v.1.15,2013-09-23 06:09:00,
2013-09-22 23:15:00,63.0,56.4,30.03,NNW,335,6.0,8.0,79,0.00,,,0.00,0,Wunderground v.1.15,2013-09-23 06:15:00,
2013-09-22 23:24:00,62.9,56.3,30.03,NNW,343,3.0,6.0,79,0.00,,,0.00,0,Wunderground v.1.15,2013-09-23 06:24:00,
2013-09-22 23:34:00,62.7,56.1,30.03,NNW,345,2.0,2.0,79,0.00,,,0.00,0,Wunderground v.1.15,2013-09-23 06:34:00,
2013-09-22 23:39:00,62.5,55.9,30.03,NNW,345,1.0,1.0,79,0.00,,,0.00,0,Wunderground v.1.15,2013-09-23 06:39:00,
2013-09-22 23:44:00,62.4,55.8,30.03,NNW,345,0.0,1.0,79,0.00,,,0.00,0,Wunderground v.1.15,2013-09-23 06:44:00,
2013-09-22 23:54:00,62.3,56.0,30.03,NNW,345,1.0,3.0,80,0.00,,,0.00,0,Wunderground v.1.15,2013-09-23 06:54:00,
2013-09-22 23:59:00,62.2,56.0,30.03,NNW,345,1.0,1.0,80,0.00,,,0.00,0,Wunderground v.1.15,2013-09-23 06:59:00,